Radioactive Concentration measured by Seawater Radiation Monitor near Fukushima Daiichi Nuclear Power Station
Date,Time,Cs137(Bq/L),Cs134(Bq/L),Total β(Bq/L)
2017/04/21,00:00,0.86,0.067,ND
2017/04/21,00:10,0.84,0.086,ND
2017/04/21,00:20,0.82,0.085,ND
2017/04/21,00:30,0.82,0.084,ND
2017/04/21,00:40,0.83,0.089,ND
2017/04/21,00:50,0.82,0.095,ND
2017/04/21,01:00,0.83,0.088,ND
2017/04/21,01:10,0.85,0.088,ND
2017/04/21,01:20,0.85,0.084,ND
2017/04/21,01:30,0.82,0.092,ND
2017/04/21,01:40,0.80,0.094,ND
2017/04/21,01:50,0.82,0.089,ND
2017/04/21,02:00,0.80,0.099,ND
2017/04/21,02:10,0.78,0.092,ND
2017/04/21,02:20,0.76,0.091,ND
2017/04/21,02:30,0.76,0.081,ND
2017/04/21,02:40,0.77,0.066,ND
2017/04/21,02:50,0.78,0.049,ND
2017/04/21,03:00,0.78,0.050,ND
2017/04/21,03:10,0.80,0.052,ND
2017/04/21,03:20,0.82,0.054,ND
2017/04/21,03:30,0.82,0.058,ND
2017/04/21,03:40,0.80,0.071,ND
2017/04/21,03:50,0.78,0.085,ND
2017/04/21,04:00,0.80,0.075,ND
2017/04/21,04:10,0.80,0.076,ND
2017/04/21,04:20,0.78,0.074,ND
2017/04/21,04:30,0.77,0.067,ND
2017/04/21,04:40,0.79,0.062,ND
2017/04/21,04:50,0.78,0.063,ND
2017/04/21,05:00,0.80,0.065,ND
2017/04/21,05:10,0.81,0.067,9.3
2017/04/21,05:20,0.79,0.082,10
2017/04/21,05:30,0.81,0.084,9.7
2017/04/21,05:40,0.81,0.076,12
2017/04/21,05:50,0.81,0.071,10
2017/04/21,06:00,0.81,0.073,ND
2017/04/21,06:10,0.79,0.070,ND
2017/04/21,06:20,0.81,0.057,ND
2017/04/21,06:30,0.81,0.068,ND
2017/04/21,06:40,0.80,0.078,ND
2017/04/21,06:50,0.81,0.073,ND
2017/04/21,07:00,0.79,0.077,ND
2017/04/21,07:10,0.80,0.077,ND
2017/04/21,07:20,0.81,0.084,ND
2017/04/21,07:30,0.81,0.088,ND
2017/04/21,07:40,0.82,0.087,ND
2017/04/21,07:50,0.84,0.088,ND
2017/04/21,08:00,0.84,0.098,ND
2017/04/21,08:10,0.84,0.092,ND
2017/04/21,08:20,0.84,0.088,ND
2017/04/21,08:30,0.82,0.087,ND
2017/04/21,08:40,0.81,0.088,ND
2017/04/21,08:50,0.78,0.092,ND
2017/04/21,09:00,0.82,0.082,ND
2017/04/21,09:10,0.82,0.083,ND
2017/04/21,09:20,0.81,0.088,ND
2017/04/21,09:30,0.84,0.092,ND
2017/04/21,09:40,0.85,0.090,ND
2017/04/21,09:50,0.86,0.090,ND
2017/04/21,10:00,0.81,0.099,9.5
2017/04/21,10:10,0.81,0.098,10
2017/04/21,10:20,0.80,0.10,ND
2017/04/21,10:30,0.78,0.10,ND
2017/04/21,10:40,0.79,0.094,ND
2017/04/21,10:50,0.78,0.092,ND
2017/04/21,11:00,0.83,0.085,ND
2017/04/21,11:10,0.84,0.081,ND
2017/04/21,11:20,0.85,0.075,ND
2017/04/21,11:30,0.89,0.059,ND
2017/04/21,11:40,0.89,0.060,ND
2017/04/21,11:50,0.89,0.067,9.5
2017/04/21,12:00,0.83,0.090,8.9
2017/04/21,12:10,0.84,0.090,8.8
2017/04/21,12:20,0.83,0.087,12
2017/04/21,12:30,0.83,0.080,12
2017/04/21,12:40,0.80,0.089,10
2017/04/21,12:50,0.81,0.086,ND
2017/04/21,13:00,0.82,0.089,10
2017/04/21,13:10,0.81,0.096,13
2017/04/21,13:20,0.82,0.092,12
2017/04/21,13:30,0.86,0.088,12
2017/04/21,13:40,0.88,0.088,11
2017/04/21,13:50,0.89,0.083,9.0
2017/04/21,14:00,0.87,0.089,ND
2017/04/21,14:10,0.86,0.088,ND
2017/04/21,14:20,0.89,0.058,9.0
2017/04/21,14:30,0.87,0.069,10
2017/04/21,14:40,0.88,0.067,10
2017/04/21,14:50,0.90,0.069,11
2017/04/21,15:00,0.87,0.099,9.7
2017/04/21,15:10,0.90,0.094,ND
2017/04/21,15:20,0.91,0.094,ND
2017/04/21,15:30,0.91,0.085,ND
2017/04/21,15:40,0.91,0.078,ND
2017/04/21,15:50,0.90,0.062,ND
2017/04/21,16:00,0.88,0.037,ND
2017/04/21,16:10,0.87,0.033,9.5
2017/04/21,16:20,0.82,0.067,12
2017/04/21,16:30,0.86,0.048,ND
2017/04/21,16:40,0.82,0.079,9.9
2017/04/21,16:50,0.80,0.095,13
2017/04/21,17:00,0.81,0.098,13
2017/04/21,17:10,0.79,0.11,10
2017/04/21,17:20,0.78,0.10,9.0
2017/04/21,17:30,0.77,0.085,11
2017/04/21,17:40,0.76,0.076,11
2017/04/21,17:50,0.74,0.073,9.3
2017/04/21,18:00,0.71,0.072,12
2017/04/21,18:10,0.71,0.067,14
2017/04/21,18:20,0.74,0.043,14
2017/04/21,18:30,0.71,0.054,13
2017/04/21,18:40,0.65,0.087,13
2017/04/21,18:50,0.70,0.056,12
2017/04/21,19:00,0.73,0.052,12
2017/04/21,19:10,0.72,0.054,10
2017/04/21,19:20,0.68,0.077,ND
2017/04/21,19:30,0.71,0.067,9.7
2017/04/21,19:40,0.71,0.061,9.5
2017/04/21,19:50,0.69,0.057,9.5
2017/04/21,20:00,0.69,0.066,9.0
2017/04/21,20:10,0.67,0.076,ND
2017/04/21,20:20,0.71,0.055,9.6
2017/04/21,20:30,0.70,0.051,10
2017/04/21,20:40,0.67,0.056,ND
2017/04/21,20:50,0.67,0.056,ND
2017/04/21,21:00,0.65,0.049,8.9
2017/04/21,21:10,0.63,0.068,9.9
2017/04/21,21:20,0.64,0.065,9.2
2017/04/21,21:30,0.64,0.066,8.8
2017/04/21,21:40,0.66,0.062,ND
2017/04/21,21:50,0.66,0.066,ND
2017/04/21,22:00,0.74,0.030,9.3
2017/04/21,22:10,0.78,ND,11
2017/04/21,22:20,0.71,0.050,12
2017/04/21,22:30,0.69,0.055,8.9
2017/04/21,22:40,0.70,0.062,ND
2017/04/21,22:50,0.71,0.060,11
2017/04/21,23:00,0.72,0.039,9.6
2017/04/21,23:10,0.71,0.045,ND
2017/04/21,23:20,0.70,0.048,ND
2017/04/21,23:30,0.71,0.045,ND
2017/04/21,23:40,0.70,0.049,ND
2017/04/21,23:50,0.71,0.053,ND
